Overview Statistics Trail Chart Weather Telemetry Raw packets
 

This is the latest recevied weather packets stored in our database for station/object N6GPM. If no packets are shown the sender has not sent any weather packets the latest 10 day(s).

<< 46 47 48 49 50 51 52 >>
Time Temp. Humidity Pressure Rain* Wind** Luminosity Snow
1788362425 19.44° C 57% 1020.2 hPa 0 mm - 317 W/m² -
1788362120 19.44° C 59% 1019.9 hPa 0 mm - 296 W/m² -
1788361819 19.44° C 60% 1020.2 hPa 0 mm - 275 W/m² -
1788361515 18.89° C 58% 1020 hPa 0 mm - 254 W/m² -
1788361210 18.89° C 58% 1020.1 hPa 0 mm - 205 W/m² -
1788360905 18.89° C 59% 1020.2 hPa 0 mm - 186 W/m² -
1788360599 18.89° C 62% 1020.1 hPa 0 mm - 194 W/m² -
1788360296 18.33° C 66% 1020.3 hPa 0 mm - 171 W/m² -
1788359990 18.33° C 65% 1020.1 hPa 0 mm - 156 W/m² -
1788359685 18.33° C 68% 1020.2 hPa 0 mm - 139 W/m² -
1788359380 17.78° C 69% 1020 hPa 0 mm - 119 W/m² -
1788359077 17.22° C 72% 1019.8 hPa 0 mm - 103 W/m² -
1788358772 16.67° C 74% 1019.7 hPa 0 mm - 89 W/m² -
1788358467 16.67° C 76% 1019.9 hPa 0 mm - 77 W/m² -
1788358166 16.11° C 79% 1019.8 hPa 0 mm - 71 W/m² -
1788357862 16.11° C 81% 1019.8 hPa 0 mm - 64 W/m² -
1788357561 16.11° C 82% 1019.5 hPa 0 mm - 56 W/m² -
1788357258 15.56° C 83% 1019.7 hPa 0 mm - 45 W/m² -
1788356956 15.56° C 84% 1019.8 hPa 0 mm - 35 W/m² -
1788356652 15.56° C 84% 1019.6 hPa 0 mm - 26 W/m² -
1788356347 15° C 85% 1019.6 hPa 0 mm - 19 W/m² -
1788356047 15° C 85% 1019.2 hPa 0 mm - 13 W/m² -
1788355742 15° C 85% 1019.6 hPa 0 mm - 8 W/m² -
1788355437 15° C 85% 1019.5 hPa 0 mm - 5 W/m² -
1788355132 15° C 86% 1019.7 hPa 0 mm - 3 W/m² -

* Rain latest hour (hover to see other rain measurements)
** Current wind speed in m/s (hover to see current wind gust speed)